{"data":{"norad_id":69972,"epoch":"2026-09-20T03:55:21.298080Z","epoch_age_seconds":46834,"freshness":"FRESH","line1":"1 69972U 26158A   26263.16344095  .00000094  00000+0  10750-3 0  9994","line2":"2 69972  49.9857 357.7874 0005204 179.1215 180.9708 14.25130814 10255","mean_motion":14.25130814,"eccentricity":0.0005204,"inclination_deg":49.9857,"raan_deg":357.7874,"arg_perigee_deg":179.1215,"mean_anomaly_deg":180.9708,"bstar":0.0001075,"rev_number":1025,"period_min":101.04335586979,"perigee_km":804.31317608098,"apogee_km":811.79256249694,"semimajor_km":7186.189869289,"source":"CELESTRAK","updated_at":"2026-09-20T09:00:25.220186Z"}}